N0OQA Weather Reports


time (UTC)temp
C
wind
direction
speed
KPH
gust
KPH
rain 1hr
cm
rain 24hr
cm
rain mn
cm
humidity
%
barometer
mb
20260502195152 17 224 14.5 20.9 0.00 0.00 0.00 34 1015.3
20260502185148 17 180 17.7 24.1 0.00 0.00 0.00 34 1016.7
20260502122624 2 0 0.0 0.0 0.00 0.00 0.00 82 1020.6
20260502122124 2 0 0.0 0.0 0.00 0.00 0.00 80 1020.8
20260502121623 2 0 0.0 0.0 0.00 0.00 0.00 80 1020.7
20260502121123 2 0 0.0 0.0 0.00 0.00 0.00 80 1020.7
20260502115121 2 0 0.0 0.0 0.00 0.00 0.00 81 1020.6
20260502114621 1 0 0.0 0.0 0.00 0.00 0.00 82 1020.6
20260502114120 1 0 0.0 0.0 0.00 0.00 0.00 83 1020.6
20260502113620 1 0 0.0 0.0 0.00 0.00 0.00 85 1020.6
20260502112119 0 0 0.0 0.0 0.00 0.00 0.00 87 1020.6
20260502111619 0 0 0.0 0.0 0.00 0.00 0.00 88 1020.6
20260502111119 0 0 0.0 0.0 0.00 0.00 0.00 88 1020.6
20260502110618 0 211 1.6 4.8 0.00 0.00 0.00 88 1020.6
20260502105618 0 0 0.0 0.0 0.00 0.00 0.00 89 1020.5
20260502105117 0 0 0.0 0.0 0.00 0.00 0.00 89 1020.5
20260502104617 0 0 0.0 0.0 0.00 0.00 0.00 90 1020.5
20260502103116 0 0 0.0 0.0 0.00 0.00 0.00 92 1020.5
20260502102116 0 0 0.0 0.0 0.00 0.00 0.00 92 1020.5
20260502101115 0 0 0.0 0.0 0.00 0.00 0.00 91 1020.4
20260502100615 0 240 3.2 4.8 0.00 0.00 0.00 91 1020.5
20260502100115 0 0 0.0 0.0 0.00 0.00 0.00 90 1020.4
20260502091112 1 0 0.0 0.0 0.00 0.00 0.00 79 1020.3
20260502090611 1 0 0.0 0.0 0.00 0.00 0.00 79 1020.2
20260502090111 1 0 0.0 0.0 0.00 0.00 0.00 78 1020.2
20260502080108 2 0 0.0 0.0 0.00 0.00 0.00 71 1020.3
20260502070605 3 0 0.0 0.0 0.00 0.00 0.00 67 1020.5
20260502070104 3 0 0.0 0.0 0.00 0.00 0.00 67 1020.5
20260502065604 3 0 0.0 0.0 0.00 0.00 0.00 66 1020.6
20260502065104 3 0 0.0 0.0 0.00 0.00 0.00 67 1020.6
20260502064603 3 0 0.0 0.0 0.00 0.00 0.00 67 1020.6
20260502063102 3 0 0.0 0.0 0.00 0.00 0.00 67 1020.7
20260502062602 3 0 0.0 0.0 0.00 0.00 0.00 67 1020.3
20260502062102 3 0 0.0 0.0 0.00 0.00 0.00 67 1020.7
20260502061602 3 0 0.0 0.0 0.00 0.00 0.00 67 1020.7
20260502061101 3 0 0.0 0.0 0.00 0.00 0.00 67 1020.7
20260502060601 3 0 0.0 0.0 0.00 0.00 0.00 67 1020.6
20260502060101 3 0 0.0 0.0 0.00 0.00 0.00 66 1020.7
20260502055601 3 0 0.0 0.0 0.00 0.00 0.00 66 1020.7
20260502054600 3 0 0.0 0.0 0.00 0.00 0.00 65 1020.7
20260502054100 3 0 0.0 0.0 0.00 0.00 0.00 65 1020.7
20260502053559 3 0 0.0 0.0 0.00 0.00 0.00 65 1020.7
20260502053059 3 0 0.0 0.0 0.00 0.00 0.00 65 1020.7
20260502052559 3 0 0.0 0.0 0.00 0.00 0.00 64 1020.8
20260502052059 3 0 0.0 0.0 0.00 0.00 0.00 63 1020.8
20260502051558 3 0 0.0 0.0 0.00 0.00 0.00 63 1020.8
20260502050558 3 0 0.0 0.0 0.00 0.00 0.00 62 1020.8
20260502050057 3 0 0.0 0.0 0.00 0.00 0.00 62 1020.8
20260502045557 3 0 0.0 0.0 0.00 0.00 0.00 63 1020.8
20260502043556 3 0 0.0 0.0 0.00 0.00 0.00 63 1020.8
20260502042555 3 0 0.0 0.0 0.00 0.00 0.00 63 1020.8
20260502041055 3 0 0.0 0.0 0.00 0.00 0.00 66 1020.8